Torna al catalogo

SL-8 R/B

AttivoPO
NORAD 10745·ROCKET BODY·🇷🇺 Russia

Lanciato Mar 28, 1978 da Plesetsk Cosmodrome

Loading…

Prossimi Passaggi (prossime 24 ore)

TLE

AggiornatoSource: Space-Track

Epoca: Sep 14, 2026, 06:06 UTC

1 10745U 78031B   26257.25423812  .00000064  00000-0  47672-4 0  9995
2 10745  82.9302 350.3900 0034672 351.1259  37.6522 13.78931645437322

Traccia SL-8 R/B in tempo reale con AllMySat

Download on the App Store